Wind_Speed
19 20 20 21 21 21 21 22 23 24 24 25 26 27 28 29 30 32 33 35 36 38 39 40 42 43 44 46 48 49 50 52 53 55 55 56 57 57 58 59 60 61 61
20 21 22 22 22 22 23 23 24 24 25 26 27 28 29 30 32 33 35 37 38 40 41 43 44 46 47 48 50 52 53 54 56 58 59 59 59 60 60 61 62 63 64
22 22 23 23 24 24 24 24 25 25 26 27 28 30 31 33 35 37 38 40 41 43 44 46 47 49 50 52 54 56 57 58 60 61 63 64 64 64 64 64 65 67 68
22 23 24 24 25 25 26 26 27 28 29 30 31 32 34 35 37 38 40 42 44 45 47 49 51 53 54 56 58 60 61 63 64 66 68 70 71 72 71 70 70 70 72
23 24 25 26 26 27 28 28 29 30 31 32 33 35 36 38 39 41 43 45 47 49 51 53 55 57 59 60 62 64 67 68 70 72 74 75 76 78 79 78 77 77 76
25 26 27 27 28 29 30 31 31 32 33 34 36 37 39 41 43 45 46 49 51 53 56 58 60 62 64 66 68 70 72 74 76 78 79 81 81 82 84 84 84 84 83
27 28 28 29 30 31 32 33 33 34 35 37 39 41 43 44 47 49 51 53 55 58 60 62 64 67 69 71 73 75 77 79 81 82 83 85 85 86 87 88 88 88 87
29 29 30 31 33 34 34 35 36 37 39 41 43 45 47 49 51 54 56 58 60 62 64 67 69 71 74 76 78 80 82 83 84 85 86 87 87 88 89 89 90 90 90
31 31 33 34 36 36 37 38 39 41 43 45 47 49 51 54 56 59 61 63 65 67 69 71 74 76 79 81 82 82 82 83 83 84 85 87 87 88 88 89 90 91 92
32 34 36 37 38 39 40 42 44 45 47 49 51 54 56 59 61 63 66 68 70 72 74 76 78 80 81 82 82 82 82 83 83 84 84 84 84 85 85 86 87 88 90
34 36 38 39 40 42 43 45 47 49 51 53 56 58 61 63 66 68 70 72 73 75 77 79 80 81 81 81 81 81 81 81 81 80 80 80 80 80 80 80 81 82 83
37 39 40 42 43 44 46 48 50 53 55 57 60 62 65 67 69 71 73 75 77 78 80 81 81 80 79 79 79 79 79 79 79 78 77 76 75 75 75 74 74 74 75
40 41 42 44 45 47 49 52 54 56 59 61 64 66 69 71 72 74 75 77 78 80 80 80 79 78 78 78 78 78 78 77 76 74 73 71 70 69 68 67 67 67 67
41 42 44 46 48 50 53 55 57 60 62 65 67 69 71 72 74 75 77 78 79 80 79 78 77 77 77 77 77 76 75 73 71 68 66 65 63 62 61 61 61 61 60
43 44 46 48 51 53 56 58 60 63 65 67 69 71 72 74 75 77 78 79 80 79 78 77 77 77 77 75 74 72 70 67 64 62 60 58 57 56 56 56 55 54 55
45 47 49 51 54 56 58 60 63 65 67 69 71 72 74 75 77 78 79 79 79 78 77 77 76 75 73 71 69 67 64 61 58 56 55 54 53 52 51 51 51 50 50
47 49 51 54 56 58 61 63 65 67 69 70 72 74 76 77 78 79 79 79 78 77 76 75 73 71 69 67 64 61 59 56 54 53 51 50 49 48 48 47 47 47 48
49 52 54 56 59 61 63 65 67 68 70 72 74 76 77 79 79 79 79 78 77 75 74 72 70 67 64 62 59 57 54 52 50 49 48 47 46 46 46 45 44 43 43
52 54 56 59 61 63 65 66 68 70 72 74 75 77 79 79 79 78 77 76 75 73 71 69 66 63 60 57 55 53 50 48 47 46 46 46 45 44 44 44 42 41 41
54 57 59 61 63 65 67 68 70 72 73 75 77 78 79 79 78 77 76 74 73 70 68 65 62 59 55 52 50 49 47 46 45 44 44 43 42 41 41 41 40 40 39
57 59 61 63 65 67 69 70 72 74 75 77 78 79 78 78 77 76 74 73 71 67 64 61 57 54 51 48 47 46 45 44 42 41 40 40 39 39 38 38 38 38 38
59 61 63 65 67 69 71 72 73 75 77 78 78 78 77 76 76 74 72 70 67 63 60 56 52 50 47 45 44 43 43 42 41 39 38 38 37 36 36 36 37 37 37
61 63 65 67 68 70 72 74 75 77 78 78 78 77 76 75 75 73 70 67 63 60 56 52 48 45 43 42 41 40 40 39 38 38 37 36 35 35 35 35 36 36 36
64 66 67 69 70 72 73 76 77 78 79 78 77 76 75 74 72 69 66 62 59 55 51 48 45 42 40 39 38 38 37 36 36 36 35 35 34 34 33 33 33 33 33
66 67 69 70 72 73 75 77 78 79 79 78 76 75 74 72 68 64 61 57 53 51 47 44 42 40 38 37 36 36 35 35 34 34 34 34 33 32 31 31 31 31 31
68 69 70 72 73 75 76 78 79 79 78 76 75 73 71 68 64 59 54 51 49 46 44 42 41 39 37 36 35 35 34 34 34 34 34 33 32 31 30 30 30 30 30
Wind_Direction
301 300 300 299 298 297 297 296 294 293 293 292 292 291 291 291 291 291 291 290 290 289 288 287 286 286 285 284 283 283 281 280 279 278 277 276 275 274 273 272 272 271 270
300 299 298 299 298 297 297 296 295 294 294 293 293 294 294 293 293 293 293 293 292 291 291 290 289 288 287 286 286 284 283 283 282 281 279 278 276 275 274 273 272 272 271
298 298 298 298 297 297 297 296 296 295 295 295 295 295 295 295 294 294 294 294 293 293 292 291 290 290 289 288 287 286 285 284 283 283 282 281 279 276 275 273 273 272 271
297 297 297 296 296 297 297 297 297 296 296 296 296 296 296 296 296 295 295 295 294 294 293 292 292 291 290 289 288 287 286 286 285 284 283 282 281 279 277 275 273 271 271
296 296 295 295 295 296 297 297 296 296 296 296 296 296 296 295 295 295 295 295 294 294 293 293 292 291 291 290 289 288 287 286 285 284 283 282 281 280 279 277 275 273 271
296 295 295 294 294 295 296 296 296 295 295 296 297 297 297 297 297 297 297 296 296 295 294 294 293 292 291 291 290 289 288 287 286 285 283 282 281 280 279 278 276 275 273
296 295 294 294 295 296 296 296 296 296 296 297 297 298 298 298 298 298 297 297 296 295 294 294 293 292 292 291 291 290 289 287 286 285 284 282 281 280 279 278 276 274 273
295 295 294 295 296 296 297 297 296 297 297 297 298 298 298 299 299 299 298 297 297 296 295 294 293 293 293 292 291 290 289 288 287 286 284 283 282 281 279 278 276 275 273
294 294 295 296 296 296 296 297 297 297 298 299 299 300 300 300 300 300 300 299 298 297 297 296 295 295 294 294 293 291 290 289 287 286 285 283 282 280 279 278 276 275 273
294 295 295 296 296 296 297 297 298 298 299 300 301 301 302 302 302 301 301 301 300 299 299 298 298 297 296 295 294 293 292 291 289 288 287 285 284 282 280 278 277 276 275
296 295 296 296 296 297 297 298 299 299 301 301 302 303 303 303 303 303 302 302 301 301 301 300 299 299 298 297 296 295 294 293 292 290 289 287 285 283 281 279 278 276 275
297 296 296 297 297 298 299 300 300 301 302 303 303 304 304 304 304 304 304 303 303 303 302 302 301 300 299 298 298 297 296 295 293 292 290 288 286 285 283 281 279 278 276
297 297 297 298 299 299 300 301 301 302 303 304 304 305 305 305 305 305 305 305 305 304 304 303 302 301 301 300 299 298 297 296 294 292 291 289 287 286 284 282 281 279 277
297 298 298 299 300 301 301 302 303 304 304 305 305 306 306 306 306 306 306 306 306 306 305 304 303 303 302 301 300 299 298 297 295 293 292 290 288 286 284 282 281 279 277
298 298 299 300 301 302 303 303 304 305 305 306 306 307 307 307 307 308 308 307 307 307 306 305 304 304 303 302 301 299 298 297 295 294 292 290 289 287 285 283 281 279 278
298 299 300 301 302 303 303 304 305 305 306 307 307 308 308 308 309 309 309 308 308 307 307 306 305 305 304 303 301 299 298 297 296 294 292 290 288 287 285 283 281 280 279
299 300 301 302 303 304 304 305 306 306 307 308 309 309 309 310 310 310 310 309 309 308 307 307 306 305 304 302 300 299 297 297 296 295 293 291 289 287 286 284 282 280 279
300 301 302 303 304 305 305 306 307 308 309 310 310 311 311 311 311 311 311 310 309 309 309 308 307 305 304 302 300 298 297 297 297 296 294 292 291 288 286 284 282 280 278
301 302 303 304 305 306 307 308 309 309 310 311 311 312 312 312 312 312 312 311 311 310 310 308 307 305 303 301 300 298 298 298 297 297 295 294 292 290 287 285 283 281 279
302 303 305 306 307 307 308 309 310 311 311 312 313 313 313 313 313 313 313 312 311 311 310 309 307 305 303 301 300 299 299 298 298 297 297 295 294 291 288 285 284 282 280
304 305 306 307 308 309 310 311 311 312 313 313 314 314 314 314 314 313 313 312 312 311 310 309 307 305 304 301 300 300 299 299 299 299 298 296 294 292 289 287 285 284 282
305 306 307 308 309 310 311 311 312 313 313 314 314 314 314 314 314 314 313 313 312 311 310 308 307 305 303 301 300 300 300 300 300 300 299 298 295 292 290 288 286 284 283
306 307 308 309 310 311 312 312 313 314 314 315 315 315 314 314 314 314 313 312 311 311 310 308 307 305 303 302 301 300 300 299 300 300 300 299 297 294 291 289 287 286 284
307 308 309 310 311 312 312 313 314 314 315 315 315 315 315 315 314 314 313 312 311 310 310 308 307 306 304 302 302 301 300 299 299 300 300 299 298 296 293 291 289 287 285
308 309 310 311 311 312 313 314 314 315 315 316 316 315 315 315 315 314 313 312 311 311 310 309 309 307 306 305 304 303 302 301 300 300 300 300 298 296 293 292 290 289 288
309 310 310 311 312 313 314 314 315 315 316 316 316 316 316 315 314 313 313 312 311 310 310 309 309 309 308 308 307 306 305 303 303 303 303 301 300 298 295 293 291 290 289
Height
5820 5819 5817 5815 5813 5811 5809 5807 5805 5803 5800 5798 5796 5794 5792 5789 5787 5784 5782 5779 5776 5774 5771 5768 5765 5762 5760 5757 5754 5750 5748 5745 5742 5739 5737 5736 5734 5732 5731 5728 5726 5725 5723
5816 5814 5812 5810 5808 5806 5804 5802 5800 5797 5795 5792 5790 5787 5785 5782 5780 5777 5774 5771 5767 5764 5761 5758 5755 5751 5748 5745 5741 5737 5734 5731 5727 5724 5721 5720 5720 5718 5715 5713 5710 5708 5706
5811 5809 5807 5805 5803 5801 5799 5796 5794 5791 5789 5786 5784 5781 5778 5775 5772 5768 5765 5761 5758 5754 5750 5747 5743 5739 5736 5732 5728 5723 5720 5716 5712 5708 5704 5701 5701 5699 5699 5697 5694 5691 5688
5806 5804 5802 5800 5797 5795 5793 5790 5788 5785 5782 5780 5777 5773 5770 5767 5763 5759 5756 5751 5747 5743 5739 5735 5731 5726 5722 5718 5713 5709 5704 5700 5696 5691 5687 5683 5679 5676 5677 5678 5676 5673 5669
5801 5799 5796 5794 5792 5789 5787 5784 5781 5778 5775 5772 5769 5765 5762 5758 5754 5750 5746 5741 5737 5732 5727 5722 5717 5712 5708 5703 5698 5692 5687 5682 5678 5672 5667 5663 5659 5653 5651 5653 5652 5650 5649
5796 5793 5790 5788 5786 5783 5780 5777 5774 5771 5767 5764 5760 5756 5752 5748 5744 5740 5735 5730 5725 5720 5714 5708 5703 5697 5692 5686 5680 5674 5668 5662 5657 5651 5645 5640 5636 5632 5626 5625 5625 5623 5623
5790 5787 5784 5781 5779 5776 5773 5769 5766 5762 5759 5755 5751 5747 5742 5738 5733 5728 5723 5717 5712 5706 5700 5693 5687 5680 5674 5667 5661 5654 5648 5641 5634 5628 5622 5616 5611 5606 5601 5598 5597 5595 5596
5783 5780 5777 5774 5771 5768 5765 5761 5757 5753 5749 5745 5741 5736 5731 5726 5721 5715 5709 5703 5697 5690 5683 5676 5669 5662 5654 5647 5639 5632 5625 5617 5610 5604 5596 5590 5585 5579 5574 5570 5567 5565 5568
5776 5773 5770 5767 5763 5760 5756 5752 5748 5744 5739 5734 5729 5724 5718 5713 5707 5700 5693 5687 5680 5673 5665 5657 5649 5641 5633 5624 5615 5608 5600 5592 5585 5578 5571 5564 5558 5552 5547 5542 5538 5535 5536
5769 5765 5762 5758 5755 5751 5747 5742 5738 5733 5728 5722 5717 5711 5704 5698 5691 5684 5677 5669 5661 5653 5645 5637 5628 5618 5609 5599 5590 5582 5574 5566 5559 5551 5544 5537 5531 5524 5519 5514 5510 5506 5504
5761 5757 5753 5749 5745 5741 5737 5732 5727 5721 5716 5710 5703 5697 5690 5682 5674 5666 5658 5650 5641 5632 5623 5614 5605 5595 5585 5575 5566 5557 5549 5541 5533 5525 5518 5512 5504 5498 5493 5487 5484 5480 5477
5752 5748 5744 5740 5736 5731 5726 5720 5715 5709 5703 5696 5689 5682 5674 5666 5657 5649 5640 5630 5621 5611 5602 5592 5582 5572 5562 5552 5542 5534 5525 5516 5509 5501 5493 5487 5479 5474 5469 5463 5459 5456 5453
5743 5739 5734 5730 5725 5720 5714 5708 5702 5696 5689 5682 5674 5666 5657 5648 5639 5630 5620 5610 5600 5590 5580 5569 5559 5549 5539 5529 5519 5510 5502 5493 5485 5478 5470 5464 5457 5452 5447 5442 5438 5435 5432
5733 5728 5724 5719 5714 5708 5702 5696 5689 5682 5674 5666 5658 5649 5640 5631 5621 5611 5601 5590 5580 5569 5558 5548 5537 5527 5517 5507 5497 5487 5479 5471 5463 5456 5449 5443 5437 5432 5427 5423 5420 5416 5413
5723 5718 5713 5708 5702 5696 5689 5682 5675 5667 5659 5650 5641 5632 5622 5612 5602 5592 5581 5570 5559 5548 5537 5527 5517 5506 5495 5485 5475 5466 5458 5450 5444 5437 5430 5425 5419 5414 5409 5405 5403 5399 5397
5712 5707 5701 5696 5689 5683 5676 5668 5660 5652 5643 5634 5624 5615 5605 5594 5584 5573 5561 5550 5539 5528 5516 5506 5495 5485 5475 5464 5454 5445 5438 5432 5426 5420 5414 5409 5404 5399 5394 5390 5387 5384 5382
5701 5695 5689 5683 5676 5669 5661 5653 5645 5636 5627 5617 5607 5597 5586 5576 5564 5553 5541 5530 5519 5508 5497 5486 5475 5465 5456 5445 5436 5427 5420 5415 5409 5403 5398 5393 5389 5384 5380 5376 5373 5370 5367
5689 5683 5676 5670 5662 5654 5646 5638 5629 5619 5610 5600 5589 5578 5567 5557 5545 5533 5521 5510 5499 5488 5477 5467 5456 5446 5437 5428 5419 5411 5405 5399 5394 5388 5383 5378 5374 5370 5366 5362 5360 5357 5355
5676 5670 5663 5655 5647 5639 5631 5622 5613 5603 5593 5583 5572 5560 5548 5537 5526 5514 5502 5490 5479 5469 5458 5447 5437 5428 5420 5411 5403 5396 5390 5386 5380 5375 5370 5365 5360 5356 5352 5348 5346 5344 5343
5663 5656 5648 5640 5632 5623 5615 5606 5596 5586 5576 5565 5554 5542 5529 5517 5506 5494 5483 5471 5460 5450 5440 5430 5420 5410 5403 5396 5388 5382 5376 5372 5367 5362 5357 5352 5347 5343 5339 5335 5333 5331 5330
5649 5642 5634 5625 5617 5607 5598 5589 5579 5569 5558 5547 5535 5523 5511 5498 5487 5476 5464 5453 5442 5432 5423 5413 5405 5396 5388 5382 5375 5369 5363 5358 5354 5350 5345 5340 5335 5331 5327 5323 5321 5319 5316
5635 5627 5619 5611 5601 5591 5582 5573 5563 5552 5541 5530 5518 5505 5493 5480 5468 5457 5446 5435 5424 5415 5406 5397 5390 5382 5375 5369 5363 5357 5351 5346 5341 5338 5333 5329 5324 5319 5316 5312 5310 5307 5304
5620 5612 5604 5595 5585 5575 5565 5555 5545 5534 5523 5511 5499 5487 5475 5463 5450 5439 5428 5418 5407 5398 5390 5383 5376 5370 5363 5357 5351 5346 5341 5335 5330 5326 5322 5317 5313 5309 5305 5302 5299 5296 5293
5605 5597 5588 5579 5570 5559 5548 5537 5526 5516 5504 5493 5481 5469 5458 5446 5434 5422 5411 5401 5392 5383 5376 5369 5364 5358 5352 5346 5341 5336 5331 5326 5321 5316 5312 5307 5302 5298 5295 5291 5288 5285 5282
5590 5581 5572 5563 5553 5542 5532 5520 5508 5497 5486 5475 5463 5452 5440 5428 5418 5407 5396 5386 5378 5369 5362 5357 5351 5346 5342 5336 5330 5325 5320 5315 5311 5306 5301 5297 5293 5288 5285 5281 5278 5275 5273
5574 5565 5556 5546 5536 5525 5514 5503 5491 5479 5467 5457 5446 5434 5423 5412 5401 5392 5385 5375 5366 5359 5351 5345 5340 5335 5330 5325 5320 5315 5310 5305 5300 5295 5291 5286 5282 5278 5275 5272 5269 5266 5263